Find Starlink 3451

NORAD ID: 51749 Int'l Des: 2022-016 Owner: SPXS Country: US Constellation: starlink operational
LEOCIRCULAR

リアルタイム位置

3D地球を読み込み中...

Starlink 3451について

説明を読み込み中...

次回通過

Passes for default location (London). Set your location on the main map for personalized predictions.

高度履歴

Loading altitude history...

軌道要素

1 51749U 22016AM 26104.17523927 .00000717 00000-0 63108-4 0 9993
2 51749 53.2168 160.0047 0001349 90.0194 270.0952 15.08843602228915
Epoch: Apr 14, 2026 • Age: 11 hours

現在のステータス

高度 557.2 km
速度 7.58 km/s
衛星直下点 -48.27°S, 33.22°E
打ち上げ日 Feb 21, 2022
運用期間 4.1 years
タイプ internet

技術仕様

分類 Payload
質量 297.00 kg
乾燥質量 275.00 kg
総質量 297.00 kg
長さ 0.20 m
直径 2.80 m
スパン 9.00 m
形状 Box + pan
製造者 SPXS
バスタイプ Starlink
フェーズステータス In Orbit
所有者/国 SPXS/US

Most Searched